This demonstration page uses our WeatherBlox Daily Observations layout. Learn more.

Left ArrowRight Arrow

39.95238, -75.16362

Hourly Observations for May 1, 2015

Temp ( °F °C ) Dew Point ( °F °C ) Humidity (%) Winds ( mph kmh ) Pressure ( in mb ) Visibility ( mi km ) Precip ( " mm )
12:54 am 00:54 Cloudy 54 12.2 41 5 62 62 ENE 8 13 29.89 1012 10 16 0.00 0.00
1:54 am 01:54 Cloudy 53 11.7 40 4.4 61 61 ENE 9 15 29.89 1012 10 16 0.00 0.00
2:54 am 02:54 Cloudy 52 11.1 39 3.9 61 61 ENE 8 13 29.88 1012 10 16 0.00 0.00
3:54 am 03:54 Mostly Cloudy 51 10.6 40 4.4 66 66 NE 10 17 29.88 1012 10 16 0.00 0.00
4:54 am 04:54 Cloudy 50 10 40 4.4 68 68 NE 9 15 29.90 1013 10 16 0.00 0.00
5:54 am 05:54 Mostly Cloudy 49 9.4 40 4.4 71 71 ENE 9 15 29.92 1013 10 16 0.00 0.00
6:54 am 06:54 Mostly Cloudy 50 10 40 4.4 68 68 ENE 10 17 29.93 1014 10 16 0.00 0.00
7:54 am 07:54 Mostly Cloudy 52 11.1 40 4.4 64 64 ENE 13 20 29.94 1014 10 16 0.00 0.00
8:54 am 08:54 Mostly Cloudy 53 11.7 39 3.9 59 59 ENE 8 13 29.96 1015 10 16 0.00 0.00
9:54 am 09:54 Cloudy 55 12.8 41 5 59 59 E 10 17 29.98 1015 10 16 0.00 0.00
10:54 am 10:54 Mostly Cloudy 58 14.4 41 5 53 53 E 7 11 29.98 1015 10 16 0.00 0.00
11:54 am 11:54 Mostly Cloudy 59 15 41 5 51 51 E 9 15 29.97 1015 10 16 0.00 0.00
12:54 pm 12:54 Mostly Cloudy 61 16.1 42 5.6 50 50 E 9 15 29.97 1015 10 16 0.00 0.00
1:54 pm 13:54 Mostly Cloudy 63 17.2 42 5.6 47 47 E 9 15 29.96 1014 10 16 0.00 0.00
2:54 pm 14:54 Cloudy 63 17.2 43 6.1 48 48 E 8 13 29.94 1014 10 16 0.00 0.00
3:54 pm 15:54 Cloudy 62 16.7 43 6.1 50 50 ESE 9 15 29.93 1014 10 16 0.00 0.00
4:54 pm 16:54 Cloudy 61 16.1 42 5.6 50 50 ESE 7 11 29.92 1013 10 16 0.00 0.00
5:54 pm 17:54 Cloudy 61 16.1 42 5.6 50 50 S 3 6 29.92 1013 10 16 0.00 0.00
6:54 pm 18:54 Cloudy 61 16.1 43 6.1 52 52 ESE 5 7 29.93 1013 10 16 0.00 0.00
7:54 pm 19:54 Mostly Cloudy 56 13.3 44 6.7 65 65 ENE 14 22 29.81 1010 10 16 0.00 0.00
8:54 pm 20:54 Cloudy 55 12.8 41 5 59 59 ESE 10 17 29.97 1015 10 16 0.00 0.00
9:54 pm 21:54 Cloudy 53 11.7 40 4.4 61 61 ESE 7 11 29.98 1015 10 16 0.00 0.00
10:54 pm 22:54 Mostly Cloudy 52 11.1 39 3.9 61 61 SE 7 11 29.98 1015 10 16 0.00 0.00
11:54 pm 23:54 Mostly Clear 50 10 38 3.3 63 63 ESE 5 7 29.98 1015 10 16 0.00 0.00

Powered by AerisWeather